sat.trackr.live / text

‹ back to catalog

MOLA

NORAD 59289 · 2024-053B

PAYLOAD ACTIVE UNKNOWN

§ Identity

Operator
Country
US
Launch date
2024-03-21
Launch site
WLPIS
Launch vehicle
Mass (kg)
RCS (m²)

External: N2YO · Heavens-Above · Gunter

§ Orbital elements

Epoch: 2026-05-24T22:29:38.392224Z

Period
92.48 min
Inclination
49.9880°
Eccentricity
0.0001859
Mean motion
15.57126574 rev/d
Perigee alt
394.7 km
Apogee alt
397.2 km
Semi-major
6,774.1 km
B*
5.5849e-4
RAAN
55.0804°
Arg perigee
170.0960°
Mean anomaly
190.0046°
Rev number
11,787

§ Raw data

MOLA1 59289U 24053B   26144.93724991  .00041082  00000+0  55849-3 0  99962 59289  49.9880  55.0804 0001859 170.0960 190.0046 15.57126574117878

JSON: /api/v1/satellites/59289 · /tle

For live sub-satellite position, see the globe view (requires WebGL).

§ Visibility from observer

Set your observer location to see the next 7 days of passes ≥ 10°. The values pass through the URL so the page stays shareable.

No JS? Fill the form by hand. The geolocation button needs JavaScript.